Fort Smith, AR

5:59 PM CDT on July 26, 2016 (GMT -0500)
Fort Smith Regional

Weather History for KFSM - October, 2011

Change the Weather History Date:

Wednesday, October 19, 2011

  Actual Average Record
Temperature  
Mean Temperature 50 °F 62 °F  
Max Temperature 60 °F 74 °F 90 °F (1899)
Min Temperature 39 °F 50 °F 29 °F (1989)
Degree Days  
Heating Degree Days 15 5  
Month to date heating degree days 25 60  
Since 1 July heating degree days 33 77  
Cooling Degree Days 0 2  
Month to date cooling degree days 94 54  
Year to date cooling degree days 2820 2032  
Moisture  
Dew Point 26 °F    
Average Humidity 47    
Maximum Humidity 73    
Minimum Humidity 21    
Precipitation  
Precipitation 0.00 in 0.15 in 2.35 in (1993)
Month to date precipitation 1.20 2.59  
Year to date precipitation 33.41 36.00  
Sea Level Pressure  
Sea Level Pressure 30.00 in    
Wind  
Wind Speed 10 mph (WNW)    
Max Wind Speed 23 mph    
Max Gust Speed 32 mph    
Visibility 10 miles    
Events      
T = Trace of Precipitation, MM = Missing Value Source: NWS Daily Summary

Daily Weather History Graph

Daily Weather History Graph

Search for Another Location

Airport or City:

Trip Planner

Search our weather history database for the weather conditions in past years. The results will help you decide how hot, cold, wet, or windy it might be!

Date:

Astronomy

Oct. 19, 2011 Rise Set
Actual Time 7:26 AM CDT 6:37 PM CDT
Civil Twilight 7:01 AM CDT 7:03 PM CDT
Nautical Twilight 6:31 AM CDT 7:32 PM CDT
Astronomical Twilight 6:02 AM CDT 8:02 PM CDT
Moon No Moon Rise 1:52 PM CDT (10/19)
Length of Visible Light 12h 02m
Length of Day
11h 10m
Waning Gibbous, 54% of the Moon is Illuminated
Oct 19
Waning Gibbous
Oct 19
Last Quarter
Oct 26
New
Nov 2
First Quarter
Nov 10
Full

Hourly Weather History & Observations

Time (CDT) Temp. Windchill Dew Point Humidity Pressure Visibility Wind Dir Wind Speed Gust Speed Precip Events Conditions
12:53 AM 51.1 °F - 30.0 °F 44% 29.99 in 10.0 mi NNW 11.5 mph 20.7 mph N/A   Clear
1:53 AM 48.9 °F - 30.9 °F 50% 29.99 in 10.0 mi NW 8.1 mph - N/A   Clear
2:53 AM 46.9 °F - 30.9 °F 54% 29.98 in 10.0 mi WNW 4.6 mph - N/A   Clear
3:53 AM 44.1 °F 40.8 °F 32.0 °F 63% 29.97 in 10.0 mi WSW 5.8 mph - N/A   Clear
4:53 AM 43.0 °F 38.8 °F 32.0 °F 65% 29.97 in 10.0 mi West 6.9 mph - N/A   Clear
5:53 AM 41.0 °F 35.8 °F 33.8 °F 76% 29.97 in 10.0 mi West 8.1 mph - N/A   Clear
6:53 AM 41.0 °F 34.7 °F 33.1 °F 73% 29.98 in 10.0 mi West 10.4 mph - N/A   Clear
7:53 AM 41.0 °F 33.9 °F 32.0 °F 70% 29.99 in 10.0 mi West 12.7 mph - N/A   Clear
8:53 AM 45.0 °F 38.5 °F 30.9 °F 58% 30.01 in 10.0 mi West 13.8 mph - N/A   Clear
9:53 AM 50.0 °F - 30.0 °F 46% 30.01 in 10.0 mi WNW 10.4 mph 17.3 mph N/A   Clear
10:53 AM 51.8 °F - 24.8 °F 35% 30.01 in 10.0 mi NW 18.4 mph 29.9 mph N/A   Clear
11:53 AM 55.0 °F - 23.0 °F 29% 30.01 in 10.0 mi NNW 16.1 mph 28.8 mph N/A   Clear
12:53 PM 57.0 °F - 25.0 °F 29% 30.00 in 10.0 mi NW 18.4 mph 26.5 mph N/A   Clear
1:53 PM 57.9 °F - 24.1 °F 27% 29.99 in 10.0 mi NNW 17.3 mph 24.2 mph N/A   Clear
2:53 PM 59.0 °F - 21.9 °F 24% 29.97 in 10.0 mi NW 16.1 mph 32.2 mph N/A   Clear
3:53 PM 59.0 °F - 19.9 °F 22% 29.97 in 10.0 mi NW 18.4 mph 27.6 mph N/A   Clear
4:53 PM 59.0 °F - 19.0 °F 21% 29.98 in 10.0 mi NW 8.1 mph - N/A   Clear
5:53 PM 57.9 °F - 17.1 °F 20% 29.99 in 10.0 mi NNW 12.7 mph - N/A   Clear
6:53 PM 55.0 °F - 18.0 °F 23% 30.00 in 10.0 mi NW 10.4 mph - N/A   Clear
7:53 PM 53.1 °F - 19.0 °F 26% 30.02 in 10.0 mi NW 5.8 mph - N/A   Clear
8:53 PM 48.0 °F - 21.9 °F 36% 30.03 in 10.0 mi Calm Calm - N/A   Clear
9:53 PM 44.1 °F 42.5 °F 27.0 °F 51% 30.03 in 10.0 mi NNW 3.5 mph - N/A   Clear
10:53 PM 41.0 °F - 28.9 °F 62% 30.04 in 10.0 mi Calm Calm - N/A   Clear
11:53 PM 45.0 °F 40.6 °F 26.1 °F 48% 30.04 in 10.0 mi WNW 8.1 mph - N/A   Clear